Weather History for Greenville Downtown, SC

Change the Weather History Date:

Wednesday, February 13, 2013

  Actual Average Record
Temperature  
Mean Temperature 46 °F -  
Max Temperature 51 °F 52 °F 69 °F (2009)
Min Temperature 39 °F 35 °F 26 °F (2006)
Degree Days  
Heating Degree Days 19    
Moisture  
Dew Point 41 °F    
Average Humidity 84    
Maximum Humidity 97    
Minimum Humidity 65    
Precipitation  
Precipitation 0.03 in - - ()
Sea Level Pressure  
Sea Level Pressure 29.79 in    
Wind  
Wind Speed 7 mph (NNE)    
Max Wind Speed 17 mph    
Max Gust Speed 23 mph    
Visibility 8 miles    
Events Rain    
Averages and records for this station are not official NWS values.
T = Trace of Precipitation, MM = Missing Value Source: NWS Daily Summary

Daily Weather History Graph

Daily Weather History Graph

Search for Another Location

Airport:

Trip Planner

Search our weather history database for the weather conditions in past years. The results will help you decide how hot, cold, wet, or windy it might be!

Date:

Astronomy

Feb. 13, 2013 Rise Set
Actual Time 7:16 AM EST 6:10 PM EST
Civil Twilight 6:51 AM EST 6:36 PM EST
Nautical Twilight 6:21 AM EST 7:06 PM EST
Astronomical Twilight 5:52 AM EST 7:35 PM EST
Moon 8:56 AM EST (2/13) 9:59 PM EST (2/13)
Length of Visible Light 11h 45m
Length of Day
10h 53m
Waxing Crescent, 13% of the Moon is Illuminated
Feb 13
Waxing Crescent
Feb 17
First Quarter
Feb 25
Full
Mar 4
Last Quarter
Mar 11
New

Hourly Weather History & Observations

Time (EST) Temp. Windchill Dew Point Humidity Pressure Visibility Wind Dir Wind Speed Gust Speed Precip Events Conditions
12:53 AM 46.0 °F 43.9 °F 41.0 °F 83% 29.90 in 10.0 mi ENE 4.6 mph - N/A   Overcast
1:53 AM 45.0 °F 40.6 °F 42.1 °F 90% 29.84 in 10.0 mi NE 8.1 mph - 0.01 in   Overcast
2:53 AM 45.0 °F 42.6 °F 41.0 °F 86% 29.86 in 10.0 mi North 4.6 mph - N/A   Overcast
3:53 AM 45.0 °F 41.2 °F 39.9 °F 82% 29.83 in 10.0 mi NE 6.9 mph - N/A   Overcast
4:10 AM 44.6 °F 41.4 °F 39.2 °F 81% 29.82 in 8.0 mi NE 5.8 mph - 0.01 in Rain Rain
4:53 AM 44.1 °F 40.8 °F 41.0 °F 89% 29.83 in 10.0 mi NE 5.8 mph - 0.01 in   Overcast
5:53 AM 43.0 °F 40.3 °F 41.0 °F 93% 29.82 in 10.0 mi NNE 4.6 mph - N/A   Overcast
6:53 AM 43.0 °F 38.8 °F 39.9 °F 89% 29.79 in 10.0 mi ENE 6.9 mph - N/A   Overcast
7:01 AM 42.8 °F 39.3 °F 41.0 °F 93% 29.78 in 8.0 mi ENE 5.8 mph - N/A   Overcast
7:17 AM 42.8 °F 38.6 °F 41.0 °F 93% 29.78 in 6.0 mi ENE 6.9 mph - N/A   Overcast
7:53 AM 43.0 °F 38.2 °F 41.0 °F 93% 29.79 in 2.0 mi NE 8.1 mph - N/A   Overcast
8:02 AM 42.8 °F 38.0 °F 41.0 °F 93% 29.80 in 1.5 mi NNE 8.1 mph - 0.00 in Rain Light Rain
8:53 AM 43.0 °F 40.3 °F 41.0 °F 93% 29.79 in 1.2 mi ENE 4.6 mph - 0.00 in Rain Light Rain
9:41 AM 44.6 °F 41.4 °F 42.8 °F 93% 29.78 in 3.0 mi ENE 5.8 mph - 0.01 in   Overcast
9:53 AM 44.1 °F 41.5 °F 42.1 °F 93% 29.79 in 3.0 mi NE 4.6 mph - 0.01 in   Overcast
10:53 AM 44.1 °F 41.5 °F 42.1 °F 93% 29.77 in 2.0 mi NNE 4.6 mph - 0.00 in Rain Light Rain
11:53 AM 45.0 °F - 43.0 °F 93% 29.77 in 2.0 mi Calm Calm - 0.00 in   Overcast
12:53 PM 45.0 °F 42.6 °F 44.1 °F 97% 29.73 in 2.0 mi SW 4.6 mph - N/A   Overcast
1:05 PM 46.4 °F 42.4 °F 42.8 °F 87% 29.72 in 7.0 mi WSW 8.1 mph - N/A   Overcast
1:53 PM 46.9 °F - 44.1 °F 90% 29.71 in 10.0 mi SW 11.5 mph - N/A   Overcast
2:53 PM 48.0 °F - 43.0 °F 83% 29.70 in 10.0 mi WSW 16.1 mph 21.9 mph N/A   Overcast
3:53 PM 50.0 °F - 44.1 °F 80% 29.70 in 10.0 mi SW 13.8 mph 21.9 mph N/A   Mostly Cloudy
4:08 PM 50.0 °F - 44.6 °F 82% 29.70 in 10.0 mi WSW 12.7 mph 19.6 mph N/A   Scattered Clouds
4:53 PM 51.1 °F - 43.0 °F 74% 29.70 in 10.0 mi SW 15.0 mph 21.9 mph N/A   Clear
5:53 PM 51.1 °F - 42.1 °F 71% 29.73 in 10.0 mi SW 15.0 mph - N/A   Clear
6:53 PM 48.9 °F - 39.9 °F 71% 29.77 in 10.0 mi WSW 17.3 mph 23.0 mph N/A   Partly Cloudy
7:53 PM 46.0 °F 42.5 °F 39.0 °F 76% 29.80 in 10.0 mi West 6.9 mph - N/A   Clear
8:53 PM 46.0 °F 43.9 °F 35.1 °F 66% 29.83 in 10.0 mi NNE 4.6 mph - N/A   Clear
9:53 PM 43.0 °F - 34.0 °F 71% 29.87 in 10.0 mi Calm Calm - N/A   Clear
10:53 PM 41.0 °F 39.0 °F 30.0 °F 65% 29.88 in 10.0 mi North 3.5 mph - N/A   Clear
11:53 PM 39.9 °F - 30.9 °F 70% 29.90 in 10.0 mi Calm Calm - N/A   Clear